This demonstration page uses our WeatherBlox Daily Observations layout. Learn more.

Left ArrowRight Arrow

39.12711, -84.51439

Hourly Observations for September 7, 2018

Temp ( °F °C ) Dew Point ( °F °C ) Humidity (%) Winds ( mph kmh ) Pressure ( in mb ) Visibility ( mi km ) Precip ( " mm )
12:06 am 00:06 Clear with Mist and Fog 72 22.2 72 22.2 100 100 Calm 30.15 1021 2 2 0.00 0.00
12:16 am 00:16 Clear with Mist and Fog 72 22.2 72 22.2 100 100 Calm 30.15 1021 1 1 0.00 0.00
12:23 am 00:23 Clear with Mist and Fog 72 22.2 72 22.2 100 100 Calm 30.15 1021 1 2 0.00 0.00
12:40 am 00:40 Clear with Mist and Fog 72 22.2 72 22.2 100 100 NE 3 6 30.15 1021 3 4 0.00 0.00
12:53 am 00:53 Partly Cloudy with Mist and Fog 73 22.8 73 22.8 100 100 Calm 30.16 1021 3 4 0.00 0.00
1:03 am 01:03 Mostly Cloudy with Mist and Fog 73 22.8 73 22.8 100 100 Calm 30.15 1021 4 6 0.00 0.00
1:11 am 01:11 Mostly Cloudy with Mist and Fog 73 22.8 73 22.8 100 100 Calm 30.15 1021 2 3 0.00 0.00
1:42 am 01:42 Partly Cloudy with Mist and Fog 72 22.2 72 22.2 100 100 Calm 30.15 1021 3 4 0.00 0.00
1:53 am 01:53 Mostly Clear with Mist and Fog 72 22.2 72 22.2 100 100 Calm 30.16 1022 3 5 0.00 0.00
2:14 am 02:14 Clear with Mist and Fog 72 22.2 72 22.2 100 100 Calm 30.15 1021 2 3 0.00 0.00
2:16 am 02:16 Mostly Cloudy with Mist and Fog 71 21.7 71 21.7 100 100 Calm 30.15 1021 1 2 0.00 0.00
2:24 am 02:24 Mostly Cloudy with Fog 71 21.7 71 21.7 100 100 Calm 30.15 1021 1 1 0.00 0.00
2:40 am 02:40 Partly Cloudy with Mist and Fog 71 21.7 71 21.7 100 100 Calm 30.15 1021 2 2 0.00 0.00
2:42 am 02:42 Partly Cloudy with Mist and Fog 71 21.7 71 21.7 100 100 Calm 30.15 1021 4 6 0.00 0.00
2:53 am 02:53 Mostly Clear with Mist and Fog 71 21.7 71 21.7 100 100 Calm 30.17 1022 6 10 0.00 0.00
3:53 am 03:53 Mostly Clear 71 21.7 71 21.7 100 100 Calm 30.16 1021 7 11 0.00 0.00
4:53 am 04:53 Clear 71 21.7 71 21.7 100 100 NE 3 6 30.15 1021 7 11 0.00 0.00
5:53 am 05:53 Clear 72 22.2 72 22.2 100 100 Calm 30.15 1021 8 13 0.00 0.00
6:48 am 06:48 Partly Cloudy with Mist and Fog 72 22 72 22 100 100 Calm 30.15 1021 6 10 0.00 0.00
6:53 am 06:53 Partly Cloudy with Mist and Fog 72 22.2 72 22.2 100 100 Calm 30.16 1021 6 10 0.00 0.00
7:32 am 07:32 Mostly Cloudy with Mist and Fog 72 22.2 72 22.2 100 100 Calm 30.15 1021 5 8 0.00 0.00
7:53 am 07:53 Cloudy with Mist and Fog 72 22.2 72 22.2 100 100 NE 5 7 30.16 1021 5 8 0.00 0.00
8:53 am 08:53 Cloudy with Mist and Fog 74 23.3 73 22.8 97 97 Calm 30.16 1021 4 6 0.00 0.00
9:53 am 09:53 Cloudy with Mist and Fog 74 23.3 73 22.8 97 97 NE 6 9 30.16 1021 5 8 0.00 0.00
10:46 am 10:46 Cloudy with Mist and Fog 75 23.9 73 22.8 94 94 E 5 7 30.15 1021 6 10 0.00 0.00
10:53 am 10:53 Cloudy with Mist and Fog 76 24.4 73 22.8 91 91 ENE 5 7 30.16 1021 6 10 0.00 0.00
11:53 am 11:53 Cloudy 77 25 73 22.8 88 88 E 3 6 30.16 1021 8 13 0.00 0.00
12:53 pm 12:53 Mostly Cloudy 80 26.7 74 23.3 82 82 NE 3 6 30.14 1021 10 16 0.00 0.00
1:30 pm 13:30 Partly Cloudy 82 27.8 74 23.3 77 77 NE 6 9 30.12 1020 10 16 0.00 0.00
1:53 pm 13:53 Partly Cloudy 82 27.8 74 23.3 77 77 NE 8 13 30.12 1020 10 16 0.00 0.00
2:53 pm 14:53 Partly Cloudy 82 27.8 73 22.8 74 74 NNE 5 7 30.10 1019 10 16 0.00 0.00
3:53 pm 15:53 Partly Cloudy 83 28.3 74 23.3 74 74 N 8 13 30.07 1018 10 16 0.00 0.00
4:53 pm 16:53 Partly Cloudy 83 28.3 74 23.3 74 74 NNE 8 13 30.06 1018 10 16 0.00 0.00
5:53 pm 17:53 Cloudy 81 27.2 74 23.3 79 79 NNE 7 11 30.05 1018 10 16 0.00 0.00
6:15 pm 18:15 Cloudy with Thunderstorms 80 26.7 72 22.2 76 76 NNE 8 13 30.03 1017 10 16 0.00 0.00
6:53 pm 18:53 Cloudy with Thunderstorms 73 22.8 72 22.2 96 96 NNE 10 17 30.07 1018 2 2 0.36 9.14
7:53 pm 19:53 Cloudy with Nearby Thunderstorms 73 22.8 72 22.2 96 96 ENE 12 19 30.08 1019 3 5 0.00 0.00
8:53 pm 20:53 Partly Cloudy 72 22.2 68 20 87 87 NE 7 11 30.08 1019 10 16 0.08 2.03
9:53 pm 21:53 Mostly Cloudy 72 22.2 68 20 87 87 NNE 7 11 30.09 1019 10 16 0.00 0.00
10:53 pm 22:53 Mostly Cloudy 72 22.2 68 20 87 87 NNE 7 11 30.09 1019 10 16 0.00 0.00
11:29 pm 23:29 Mostly Cloudy 72 22 N/A N/A NE 7 11 30.06 1018 9 14 0.00 0.00
11:53 pm 23:53 Cloudy 72 22 N/A N/A NE 8 13 30.08 1019 10 16 0.00 0.00

Powered by AerisWeather